Regional Weather Roundup
Issued by NWS

Home | Current Version | Previous Version | Text Only | Print | Product List | Glossary On
Versions: 1 2 3 4 5 6 7 8 9 10 11 12 13 14 15 16 17 18 19 20 21 22 23 24 25 26 27 28 29 30 31 32 33 34 35 36 37 38 39 40 41 42 43 44 45 46 47 48 49 50
000
ASUS44 KEWX 301802
RWRTX
SOUTH TEXAS REGIONAL WEATHER ROUNDUP
NATIONAL WEATHER SERVICE AUSTIN/SAN ANTONIO TX
100 PM CDT TUE SEP 30 2014

NOTE: "FAIR" INDICATED FEW OR NO CLOUDS BELOW 12,000 FEET WITH NO
SIGNIFICANT WEATHER AND/OR OBSTRUCTIONS TO VISIBILITY.

* - THESE STATIONS ARE NOT NWS OR FAA STATIONS...AND ARE NOT SUBJECT
    TO NWS AND FAA QUALITY CONTROL.

TXZ171-172-183>190-301900-
TEXAS HILL COUNTRY AND EDWARDS PLATEAU

CITY           SKY/WX    TMP DP  RH WIND       PRES   REMARKS
JUNCTION       SUNNY     83  60  45 VRB7      29.89F
6HR MIN TEMP:  60; 6HR MAX TEMP:  84;

*LLANO         SUNNY     84  64  51 CALM      29.92F
BURNET         SUNNY     84  61  45 VRB5      29.92F
6HR MIN TEMP:  63; 6HR MAX TEMP:  84;

*HORSESHOE BAY MOSUNNY   86  60  41 S5        29.89F
6HR MIN TEMP:  62; 6HR MAX TEMP:  86;

*KERRVILLE     SUNNY     82  67  59 SE8       29.91F
6HR MIN TEMP:  59; 6HR MAX TEMP:  82;

*FREDERICKSBRG MOSUNNY   82  61  48 SE6       29.91F
6HR MIN TEMP:  59; 6HR MAX TEMP:  82;

*ROCKSPRINGS   MOSUNNY   81  64  57 S13       29.96F
*BOERNE STAGE  PTSUNNY   84  61  45 SE7       29.91F
*CASTROVILLE   MOSUNNY   86  63  46 CALM      29.89F
HONDO          PTSUNNY   85  66  53 S7        29.89F
6HR MIN TEMP:  63; 6HR MAX TEMP:  87;

*UVALDE        SUNNY     85  71  60 SE5       29.89F HX  90
6HR MIN TEMP:  65; 6HR MAX TEMP:  85;

DEL RIO        SUNNY     85  68  56 S14       29.85F
6HR MIN TEMP:  69; 6HR MAX TEMP:  85;

LAUGHLIN AFB   MOSUNNY   84  69  60 S16       29.86F
6HR MIN TEMP:  67; 6HR MAX TEMP:  84;

CARRIZO SPRGS  MOSUNNY   86  68  54 CALM      29.85F
$$

TXZ173-191>194-202-209-217>225-228-301900-
CENTRAL AND SOUTH CENTRAL TEXAS

CITY           SKY/WX    TMP DP  RH WIND       PRES   REMARKS
GEORGETOWN     MOSUNNY   84  66  54 S7        29.89F
AUSTIN/BERGSTM PTSUNNY   86  68  54 NE3       29.87F
6HR MIN TEMP:  62; 6HR MAX TEMP:  86;

AUSTIN/MABRY   MOSUNNY   87  66  49 VRB3      29.88F
6HR MIN TEMP:  65; 6HR MAX TEMP:  87;

*AUSTIN/EXEC   MOSUNNY   86  68  54 SW3       29.88F
*LAGO VISTA    SUNNY     85  61  44 S5        29.91F
6HR MIN TEMP:  69; 6HR MAX TEMP:  86;

SAN MARCOS     MOSUNNY   88  64  45 SE6       29.88F
NEW BRAUNFELS  SUNNY     86  67  52 CALM      29.86F
6HR MIN TEMP:  66; 6HR MAX TEMP:  86;

RANDOLPH AFB   NOT AVBL
PT SAN ANTONIO MOSUNNY   86  67  52 SE5       29.86F
6HR MIN TEMP:  66; 6HR MAX TEMP:  87;

SAN ANTONIO    PTSUNNY   87  65  47 CALM      29.88F
6HR MIN TEMP:  67; 6HR MAX TEMP:  87;

STINSON FIELD  MOSUNNY   87  66  49 VRB6      29.85F
6HR MIN TEMP:  68; 6HR MAX TEMP:  87;

*PLEASANTON    MOSUNNY   88  66  47 E6        29.87F HX  91
6HR MIN TEMP:  67; 6HR MAX TEMP:  88;

*LA GRANGE     MOSUNNY   86  73  66 CALM      29.85F HX  93
6HR MIN TEMP:  71; 6HR MAX TEMP:  86;

*GIDDINGS      MOSUNNY   84  69  61 S3        29.91F
*GONZALES      MOSUNNY   87  72  61 CALM      29.85F HX  93
6HR MIN TEMP:  68; 6HR MAX TEMP:  87;

$$

TXZ163>164-176>182-195>201-210>213-226-227-235-301900-
SOUTHEAST TEXAS

CITY           SKY/WX    TMP DP  RH WIND       PRES   REMARKS
COLLEGE STN    MOSUNNY   83  70  64 CALM      29.87F
6HR MIN TEMP:  71; 6HR MAX TEMP:  85;

*BRYAN         MOSUNNY  N/A N/A N/A CALM      29.86F
*CALDWELL      PTSUNNY   82  70  65 CALM      29.91F
*CROCKETT      MOSUNNY   90  73  58 SE8       29.90F HX  98
*BRENHAM       SUNNY     86  71  60 CALM      29.87F HX  92
6HR MIN TEMP:  71; 6HR MAX TEMP:  86;

HUNTSVILLE     MOSUNNY   87  69  54 VRB5      29.86F HX  91
6HR MIN TEMP:  69; 6HR MAX TEMP:  88;

CONROE         PTSUNNY   83  71  67 CALM      29.87F
6HR MIN TEMP:  68; 6HR MAX TEMP:  85;

HOUSTON BUSH   PTSUNNY   84  72  67 SE8       29.86F
6HR MIN TEMP:  71; 6HR MAX TEMP:  88;

HOUSTON HOBBY  MOSUNNY   87  72  60 E8        29.85F HX  93
6HR MIN TEMP:  74; 6HR MAX TEMP:  87;

*HOUSTON SW AP CLOUDY    77  65  66 NE6       29.86F
6HR MIN TEMP:  61; 6HR MAX TEMP:  77;

PEARLAND       PTSUNNY   86  72  62 E8        29.87F HX  92
6HR MIN TEMP:  74; 6HR MAX TEMP:  88; 6HR PCP: TRACE;

HOUSTON HOOKS  MOSUNNY   88  71  57 E5        29.86F HX  94
6HR MIN TEMP:  70; 6HR MAX TEMP:  89;

ELLINGTON FLD  MOSUNNY   88  77  70 E6        29.87F HX 100
SUGAR LAND     MOSUNNY   86  71  60 SE6       29.86F HX  91
6HR MIN TEMP:  72; 6HR MAX TEMP:  87;

*HOUSTON EXEC  PTSUNNY   82  82 100 CALM      29.87F HX  97
*CLEVELAND MUN CLOUDY    87  76  69 CALM      29.87F HX  96
6HR MIN TEMP:  70; 6HR MAX TEMP:  87;

*WHARTON       PTSUNNY   85  71  61 N5        29.87F HX  90
*COLUMBUS      NOT AVBL
$$

TXZ214>216-236>238-301900-
THE UPPER TEXAS COAST

CITY           SKY/WX    TMP DP  RH WIND       PRES   REMARKS
*ORANGE        PTSUNNY   86  71  59 SE6       29.88F HX  91
PORT ARTHUR    MOSUNNY   87  73  62 E10       29.86F HX  94
6HR MIN TEMP:  73; 6HR MAX TEMP:  87; 6HR PCP: TRACE;

GALVESTON      MOSUNNY   83  76  79 SE9       29.87F HX  91
6HR MIN TEMP:  76; 6HR MAX TEMP:  84;

ANGLETON       PTSUNNY   85  73  67 E8        29.86F HX  91
6HR MIN TEMP:  72; 6HR MAX TEMP:  86;

*BAY CITY      RAIN      85  75  72 CALM      29.85F HX  94
PALACIOS       PTSUNNY   84  73  69 SE7       29.85F HX  90
6HR MIN TEMP:  73; 6HR MAX TEMP:  86; 6HR PCP: TRACE;

$$

TXZ229>234-239>247-301900-
TEXAS COASTAL BEND AND RIO GRANDE PLAINS

CITY           SKY/WX    TMP DP  RH WIND       PRES   REMARKS
VICTORIA       MOSUNNY   87  72  60 E3        29.86F HX  93
6HR MIN TEMP:  73; 6HR MAX TEMP:  89;

*BEEVILLE      PTSUNNY   87  70  56 E5        29.85F HX  92
6HR MIN TEMP:  72; 6HR MAX TEMP:  87;

ROCKPORT       CLOUDY    84  75  74 E9        29.84F HX  92
6HR MIN TEMP:  74; 6HR MAX TEMP:  84; 6HR PCP: TRACE;

*PORT ARANSAS  MOSUNNY   82  74  77 E9        29.84S
6HR MIN TEMP:  73; 6HR MAX TEMP:  82; 6HR PCP:  0.47;

*PORT LAVACA   MOSUNNY   85  75  72 E6        29.85F HX  93
6HR MIN TEMP:  72; 6HR MAX TEMP:  85;

*INGLESIDE     PTSUNNY   86  74  66 E10       29.84F HX  94
CORPUS CHRISTI PTSUNNY   84  73  69 E7        29.84F HX  90
6HR MIN TEMP:  74; 6HR MAX TEMP:  85; 6HR PCP:  0.03;

CORPUS NAS     NOT AVBL
*ROBSTOWN      CLOUDY    86  75  71 E9        29.85F HX  95
ALICE          PTSUNNY   86  73  65 VRB3      29.84F HX  93
6HR MIN TEMP:  72; 6HR MAX TEMP:  87;

KINGSVILLE NAS NOT AVBL
COTULLA        PTSUNNY   88  67  49 VRB6      29.86F HX  91
6HR MIN TEMP:  71; 6HR MAX TEMP:  88;

*FAITH RANCH   SUNNY     84  68  58 SE6       29.88F
LAREDO         PTSUNNY   88  70  55 CALM      29.88F HX  93
6HR MIN TEMP:  72; 6HR MAX TEMP:  88;

$$

TXZ248>255-301900-
DEEP SOUTH TEXAS

CITY           SKY/WX    TMP DP  RH WIND       PRES   REMARKS
BROWNSVILLE    MOSUNNY   86  77  74 SW3       29.83F HX  97
6HR MIN TEMP:  74; 6HR MAX TEMP:  86;

PORT ISABEL    PTSUNNY   84  74  71 CALM      29.83F HX  91
6HR MIN TEMP:  76; 6HR MAX TEMP:  86;

*SOUTH PADRE   PTSUNNY   86  75  70 E5        29.84S HX  95
HARLINGEN      PTSUNNY   83  75  77 CALM      29.83F HX  90
6HR MIN TEMP:  73; 6HR MAX TEMP:  84; 6HR PCP: TRACE;

*HEBBRONVILLE    N/A     83  71  65 CALM      29.88S
MCALLEN        CLOUDY    83  74  74 S3        29.84F
6HR MIN TEMP:  75; 6HR MAX TEMP:  84; 6HR PCP: TRACE;

*WESLACO       PTSUNNY   85  73  65 CALM      29.83F HX  92
6HR MIN TEMP:  74; 6HR MAX TEMP:  85;

FALFURRIAS     PTSUNNY   85  75  70 CALM      29.83F HX  93
6HR MIN TEMP:  73; 6HR MAX TEMP:  85;

EDINBURG       CLOUDY    83  73  71 CALM      29.84F HX  90



USA.gov is the U.S. government's official web portal to all federal, state and local government web resources and services.